CZ-2C DEB

Satellite information

Favourite Embed

Satellite Type and Status

DEBRISIN ORBIT

Key statistics

Satellite CZ-2C DEB at a glance.

Uptime

4375

Days in orbit

Revolutions

≈ 14.3

Per day

Orbit

SSO

Sun Synchronous Orbit

Inclination

98.3

Latest

Satellite identification and parameters

Extended collection of information and parameters for CZ-2C DEB.

Object identification

Identified? True

Debris? True

Object name: CZ-2C DEB

International designator: 2013-035F

Object number (NORAD): 39225

Object ID (CCSDS): 39225

Country: PEOPLES REPUBLIC OF CHINA (PRC)

Current information (Y/N): Y

RCS size: SMALL

Orbital parameters

Period: 100.518 minutes

Inclination: 98.2636 deg

SMA: 7161.251 km

Apoapsis: 896.87 km

Periapsis: 669.363 km

RAAN: 213.1346 deg

Eccentricy: 0.0158846

Argument of periapsis: 318.3242 deg

Mean anomaly: 40.5927 deg

Mean motion: 14.32581654 rev/day

Mean motion (dot): 0.00001362 rev/day2

B* drag term: 0.000451 1/REarth

Two-line elements (TLE)

Creation date: July 5, 2025, 5:45 p.m.

Reference frame: TEME

Reference center: EARTH

Epoch: July 5, 2025, 2:05 p.m. UTC

TLE line 0: 0 CZ-2C DEB

TLE line 1: 1 39225U 13035F 25186.58701901 .00001362 00000-0 45100-3 0 9991

TLE line 2: 2 39225 98.2636 213.1346 0158846 318.3242 40.5927 14.32581654617383

Live tracking on map

Real-time ground track for satellite CZ-2C DEB.

In-orbit conjunctions

A list of the most updated potential collisions computed for object CZ-2C DEB.

Target Orbit TCA Probability of collision Miss distance Type
FENGYUN 1C DEB SSO 2025-07-02 09:21:00 0.0001781649 280.0 (m) DEBRIS
SL-8 DEB LEO 2025-05-04 22:07:40 0.0001825647 344.0 (m) DEBRIS

Associated space launch

CZ-2C DEB was lifted into orbit during the mission ‘Long March 2C | Shijian 11-05’, on board a Long March 2 space rocket.

The launch took place on July 15, 2013, 9:27 a.m. from Launch Area 4 (SLS-2 / 603).

For more information about the launch, click the button.

Launch to space Long March 2C | Shijian 11-05
Long March 2C | Shijian 11-05

Agency: N/A

Status: Launch Successful

Launch date: July 15, 2013, 9:27 a.m. UTC

Rocket: Long March 2

Launch pad: Launch Area 4 (SLS-2 / 603)

Location: Jiuquan Satellite Launch Center, People's Republic of China

...

Latest news about this satellite

There are no fresh news available about this satellite. Check back as we update our databases every day.


Newsletter sign-up

Weekly statistics, charts and insights to help you stay on top of the space industry.